Find Starlink 30088

NORAD ID: 57462 Int'l Des: 2023-107 Owner: SPXS Country: US Constellation: starlink operational
LEOCIRCULAR

リアルタイム位置

3D地球を読み込み中...

Starlink 30088について

説明を読み込み中...

次回通過

Passes for default location (London). Set your location on the main map for personalized predictions.

高度履歴

Loading altitude history...

軌道要素

1 57462U 23107F 26130.01944723 -.00000677 00000-0 -15075-4 0 9993
2 57462 43.0034 350.0061 0001278 262.0885 97.9821 15.27567360154529
Epoch: May 10, 2026 • Age: 12 hours

現在のステータス

高度 484.7 km
速度 7.63 km/s
衛星直下点 32.30°N, 76.41°E
打ち上げ日 Jul 28, 2023
運用期間 2.7 years
タイプ internet

技術仕様

分類 Payload
質量 730.00 kg
乾燥質量 700.00 kg
総質量 730.00 kg
長さ 0.30 m
直径 4.10 m
スパン 29.00 m
形状 Box + pan
製造者 SPXS
バスタイプ Starlink V2M
フェーズステータス In Orbit
所有者/国 SPXS/US

Most Searched